Dewpoint
-14 -14 -13 -13 -13 -12 -12 -12 -12 -12 -10 -9 -9 -8 -7 -8 -10 -7 5 10 9 9 9 11 11 11 11 9 8 10 9 11 11
-13 -13 -13 -13 -13 -12 -12 -11 -11 -12 -12 -11 -10 -10 -9 -7 -7 -8 -2 7 8 8 9 11 11 10 10 9 8 8 9 9 9
-13 -14 -14 -14 -13 -13 -12 -11 -11 -10 -9 -9 -9 -10 -10 -9 -6 -4 2 7 9 10 10 10 9 7 6 4 5 9 9 9 10
-15 -16 -16 -16 -15 -15 -14 -13 -12 -10 -9 -8 -8 -7 -8 -8 -7 -4 0 4 7 9 9 8 8 7 4 -0 2 9 10 9 10
-15 -15 -14 -14 -14 -15 -15 -14 -13 -12 -10 -9 -8 -7 -6 -5 -4 -3 -3 -1 0 0 -0 -0 1 0 3 2 -1 4 8 9 10
-13 -13 -13 -14 -14 -15 -16 -17 -17 -17 -15 -11 -10 -9 -8 -6 -4 -2 -2 -2 1 -0 -1 -2 -3 6 2 2 4 4 5 2 4
-12 -12 -12 -13 -13 -15 -16 -17 -18 -19 -20 -20 -16 -12 -11 -8 -6 -3 -1 -0 3 7 8 8 4 2 5 2 5 3 2 2 0
-11 -11 -11 -11 -11 -11 -12 -13 -14 -16 -17 -18 -19 -20 -18 -12 -7 -4 -2 -0 1 5 4 8 8 8 3 4 6 4 1 1 -1
-10 -10 -10 -9 -9 -9 -9 -10 -11 -11 -11 -12 -14 -16 -17 -16 -12 -7 -5 -4 -4 2 7 7 7 7 7 7 7 7 7 6 4
-10 -9 -9 -8 -8 -8 -8 -8 -8 -9 -9 -9 -9 -9 -12 -13 -12 -8 -6 -6 -6 -6 -4 5 6 6 6 6 6 7 6 5 5
-9 -9 -9 -8 -7 -7 -7 -7 -7 -7 -8 -9 -9 -9 -9 -9 -10 -9 -6 -5 -6 -5 -4 -3 -1 3 6 6 6 6 6 4 -3
-9 -9 -8 -7 -7 -6 -6 -6 -6 -6 -5 -5 -6 -8 -10 -9 -8 -7 -4 -3 -5 -5 -5 -4 -4 -5 -5 -5 1 3 2 -5 -10
-8 -8 -7 -7 -6 -5 -5 -5 -5 -5 -6 -6 -6 -6 -8 -8 -7 -6 -3 -4 -4 -5 -5 -7 -10 -12 -12 -12 -11 -11 -13 -16 -18
-6 -5 -4 -4 -4 -4 -4 -4 -4 -4 -5 -5 -5 -6 -8 -7 -6 -5 -4 -3 -2 -3 -4 -5 -5 -6 -7 -9 -11 -7 -6 -13 -17
-4 -2 -3 -3 -4 -3 -2 -2 -3 -3 -4 -5 -5 -7 -7 -6 -5 -5 -5 -4 -3 -2 -3 -4 -4 -4 -4 -4 -4 -5 -5 -6 -12
-1 -2 -2 -3 -4 -3 -2 -2 -3 -3 -3 -4 -5 -6 -6 -5 -4 -5 -3 -3 -3 -1 -1 -3 -4 -4 -4 -4 -4 -4 -5 -4 -5
-1 -1 -2 -3 -3 -1 -1 -2 -2 -2 -3 -4 -5 -5 -5 -4 -4 -5 -5 -5 -2 -0 -0 -4 -4 -4 -4 -4 -4 -4 -4 -4 -4
-2 -2 -2 -2 -1 -1 -2 -3 -4 -4 -4 -5 -5 -3 -3 -8 -8 -6 -7 -5 -3 -3 -3 -4 -4 -4 -6 -6 -5 -4 -4 -4 -4
-2 -2 -2 -0 -0 -2 -4 -5 -7 -9 -10 -10 -9 -8 -6 -4 -7 -10 -10 -11 -13 -14 -17 -17 -16 -16 -15 -13 -10 -7 -4 -4 -4
-2 -2 -1 0 -1 -5 -10 -13 -14 -16 -18 -18 -17 -14 -12 -9 -5 -10 -19 -24 -24 -24 -24 -24 -21 -19 -16 -12 -8 -6 -4 -4 -4
Wind_Speed
8 8 8 8 8 8 8 9 9 9 9 8 10 11 10 10 10 10 12 11 8 9 11 10 10 8 8 9 10 8 8 9 9
9 9 9 9 9 9 9 9 9 9 9 8 9 9 10 9 9 8 9 10 11 12 12 7 7 11 11 9 10 10 9 11 11
9 9 9 9 10 10 10 10 9 10 10 10 9 8 8 8 8 7 7 9 13 12 13 13 14 16 17 16 12 11 11 11 11
9 9 10 10 11 11 11 11 10 9 9 10 10 9 7 6 7 8 9 10 13 16 18 18 19 20 19 16 13 11 7 10 11
9 10 11 11 12 12 13 12 12 11 11 10 9 10 9 7 7 8 10 12 13 15 17 19 19 18 15 14 13 15 15 13 7
8 10 11 12 13 13 13 13 12 12 11 11 10 10 10 9 9 9 10 10 10 11 12 14 15 12 15 14 13 11 12 16 17
9 10 12 13 13 14 14 14 13 13 11 11 11 10 9 8 9 9 9 8 6 6 6 8 10 12 12 13 12 13 14 15 16
8 10 11 12 13 13 13 13 13 12 11 11 11 10 9 8 8 8 8 8 8 7 10 7 6 4 5 6 8 11 13 15 17
8 9 11 12 13 14 14 14 14 13 13 12 12 11 10 9 8 8 8 9 9 6 3 4 5 3 2 3 4 6 8 9 6
8 10 11 12 13 13 13 13 13 13 13 12 12 12 11 10 9 9 8 8 7 7 8 4 4 5 6 5 9 10 10 7 4
8 10 11 12 13 14 15 15 14 14 14 13 13 12 12 11 10 9 8 8 7 6 6 6 5 4 3 5 6 6 7 8 8
9 10 12 13 14 15 16 15 15 15 13 13 14 13 12 11 9 8 7 6 6 6 6 6 6 7 8 9 7 8 10 10 9
10 12 13 14 15 16 16 17 15 15 15 14 14 13 12 11 9 7 5 4 4 4 4 6 7 8 8 9 10 11 12 12 11
11 13 14 14 15 16 17 17 18 17 15 14 14 13 9 7 6 5 3 2 3 3 4 5 5 5 6 7 9 9 11 12 12
12 13 14 15 15 16 16 16 16 17 18 15 13 9 7 3 2 4 3 4 5 5 5 6 7 7 7 7 8 10 12 12 12
12 13 14 15 16 15 15 15 15 13 14 14 11 6 6 2 4 10 9 10 9 9 9 10 11 12 11 12 12 12 11 11 12
13 13 14 14 13 12 13 13 12 11 12 13 11 6 4 4 13 9 9 7 7 9 11 14 16 16 17 18 17 15 14 13 12
13 14 14 13 12 11 11 11 12 12 11 11 8 4 3 17 3 7 10 8 8 12 15 19 21 23 23 21 18 17 18 16 14
13 13 12 11 10 10 11 11 11 11 11 10 9 8 10 6 10 8 9 16 20 20 22 22 20 21 20 20 19 18 18 18 17
12 12 10 10 10 11 10 10 12 13 12 12 12 12 12 11 11 24 21 24 21 19 18 19 17 17 16 15 15 15 15 16 17
Wind_Direction
355 349 346 345 343 338 334 331 321 311 301 295 291 289 290 288 284 268 253 253 259 265 278 268 274 288 296 286 282 287 276 265 275
355 354 353 351 348 345 343 342 331 319 306 302 296 293 291 290 286 274 254 244 243 253 263 257 272 284 288 305 291 280 275 268 268
1 357 358 355 350 347 343 342 338 330 324 315 306 306 297 286 279 268 251 243 243 250 256 273 282 291 294 298 293 287 271 269 264
5 4 5 2 356 352 348 341 340 335 329 321 317 314 312 301 277 265 255 249 250 255 263 275 283 288 293 289 275 265 275 266 264
11 9 7 3 360 356 352 348 343 337 331 322 318 314 310 303 290 276 268 266 268 268 270 272 279 281 283 281 271 259 258 259 263
12 10 7 4 2 357 353 349 346 341 332 325 321 315 309 303 291 283 282 282 289 290 281 274 270 273 271 272 275 275 263 258 255
11 10 8 6 2 359 355 352 349 344 337 328 322 317 311 304 296 289 287 288 276 298 304 287 272 253 264 265 269 267 268 266 264
8 8 8 5 3 360 358 354 350 346 342 336 330 322 312 304 296 292 291 291 289 274 289 320 324 319 334 291 267 277 273 263 261
2 3 1 0 359 358 356 354 354 351 347 343 338 330 319 309 299 292 294 295 293 292 319 319 348 354 357 303 283 286 292 294 290
351 352 352 353 352 350 349 349 349 349 346 342 339 335 325 317 309 303 308 314 311 294 283 288 264 244 241 256 266 277 282 308 306
338 339 340 340 340 341 341 341 341 341 342 338 333 330 326 318 313 310 310 314 314 306 295 293 299 319 321 282 309 303 304 298 293
324 325 328 330 332 334 334 333 332 331 332 332 327 324 319 313 312 311 310 322 326 316 306 298 297 295 291 288 291 303 302 298 293
314 319 322 325 326 326 327 327 326 325 325 326 323 320 312 300 300 309 306 324 334 341 333 324 315 304 294 292 297 297 297 296 291
313 318 319 319 321 322 325 327 328 328 328 327 326 323 322 305 292 305 290 335 329 343 338 337 333 324 317 309 303 304 306 298 294
311 315 316 320 320 321 324 329 332 333 332 338 335 323 332 327 315 335 259 300 302 302 301 313 314 303 311 310 305 302 300 298 294
305 310 314 316 319 321 324 329 334 338 335 340 355 330 336 272 14 317 289 285 285 279 285 287 298 292 291 301 295 294 296 295 292
297 304 310 314 317 317 320 324 331 340 343 347 354 342 318 272 308 298 323 296 275 281 287 293 301 296 293 297 289 282 284 287 289
297 302 307 311 316 320 324 328 330 333 340 344 352 339 297 314 317 299 297 292 290 294 294 296 294 293 294 294 290 281 280 277 280
293 297 300 308 313 319 320 321 323 328 329 329 323 312 301 309 307 280 290 281 290 297 297 299 298 293 291 288 290 283 277 276 276
290 292 293 299 305 310 314 318 318 319 319 318 316 314 307 298 287 300 304 305 310 312 315 313 313 305 294 288 290 287 284 277 274
Height
1543 1542 1541 1540 1539 1538 1537 1536 1535 1534 1534 1533 1532 1532 1532 1532 1532 1533 1534 1535 1536 1535 1535 1535 1534 1534 1534 1534 1534 1533 1534 1534 1534
1543 1542 1541 1540 1538 1537 1536 1535 1534 1534 1533 1531 1530 1530 1530 1531 1531 1531 1532 1533 1534 1534 1534 1533 1532 1533 1533 1533 1532 1532 1532 1532 1532
1543 1542 1540 1539 1538 1537 1535 1534 1533 1533 1532 1531 1529 1529 1529 1529 1530 1530 1530 1531 1532 1531 1531 1531 1531 1531 1531 1531 1531 1530 1530 1530 1530
1543 1542 1540 1539 1538 1537 1535 1534 1533 1532 1531 1530 1529 1528 1528 1528 1528 1529 1529 1530 1530 1529 1529 1529 1529 1529 1529 1528 1528 1529 1528 1528 1528
1542 1542 1540 1539 1538 1536 1535 1533 1532 1531 1530 1529 1528 1528 1527 1527 1527 1527 1527 1528 1528 1527 1527 1527 1527 1526 1526 1525 1526 1526 1526 1526 1526
1542 1542 1540 1539 1538 1536 1535 1534 1532 1531 1529 1528 1528 1527 1526 1526 1526 1526 1526 1526 1526 1525 1524 1523 1523 1524 1523 1523 1524 1523 1522 1523 1523
1543 1542 1540 1539 1538 1536 1535 1533 1532 1530 1529 1528 1527 1526 1525 1525 1525 1525 1525 1525 1525 1525 1523 1522 1519 1520 1520 1520 1521 1520 1520 1520 1520
1543 1542 1541 1540 1538 1537 1535 1533 1532 1530 1529 1527 1526 1525 1524 1523 1523 1523 1523 1523 1523 1522 1522 1521 1520 1519 1519 1519 1518 1517 1517 1516 1516
1543 1542 1541 1540 1538 1537 1535 1533 1531 1529 1527 1526 1525 1523 1523 1522 1521 1521 1521 1521 1520 1520 1521 1521 1520 1520 1519 1519 1518 1517 1516 1514 1513
1543 1542 1541 1540 1538 1537 1535 1533 1531 1529 1527 1525 1524 1522 1521 1520 1520 1519 1519 1519 1518 1518 1518 1518 1518 1518 1518 1517 1516 1515 1513 1512 1512
1542 1541 1540 1539 1537 1536 1534 1533 1531 1528 1527 1525 1523 1521 1520 1519 1518 1518 1517 1517 1516 1516 1516 1515 1515 1515 1515 1515 1514 1513 1511 1510 1509
1541 1540 1539 1538 1536 1535 1533 1531 1530 1528 1526 1524 1522 1520 1519 1517 1516 1516 1515 1515 1515 1515 1515 1514 1514 1513 1512 1512 1511 1510 1509 1508 1507
1540 1539 1538 1537 1535 1533 1532 1530 1529 1526 1524 1523 1521 1519 1517 1516 1515 1514 1514 1513 1513 1513 1513 1513 1512 1511 1510 1509 1509 1508 1507 1506 1505
1538 1538 1537 1535 1533 1531 1530 1528 1526 1524 1523 1521 1519 1517 1516 1515 1514 1513 1512 1512 1512 1512 1512 1511 1510 1509 1508 1507 1507 1505 1504 1503 1503
1537 1535 1534 1533 1531 1529 1528 1526 1525 1522 1520 1519 1518 1516 1515 1514 1514 1514 1512 1511 1511 1510 1510 1509 1508 1507 1506 1505 1504 1503 1502 1501 1500
1534 1533 1532 1531 1529 1527 1526 1524 1522 1521 1519 1517 1517 1516 1515 1514 1513 1513 1512 1511 1510 1508 1508 1506 1505 1505 1503 1502 1501 1500 1499 1498 1497
1532 1531 1530 1529 1527 1525 1523 1522 1520 1518 1516 1515 1513 1513 1514 1513 1512 1511 1510 1509 1509 1507 1506 1504 1502 1501 1500 1499 1497 1496 1495 1494 1493
1530 1529 1528 1526 1525 1524 1523 1521 1520 1518 1516 1515 1515 1513 1511 1510 1508 1508 1507 1507 1507 1506 1504 1502 1500 1497 1495 1494 1493 1492 1491 1490 1490
1527 1527 1526 1525 1524 1522 1521 1520 1519 1517 1515 1514 1512 1510 1510 1509 1505 1504 1504 1504 1503 1502 1500 1498 1496 1493 1491 1489 1488 1487 1487 1486 1486
1525 1524 1524 1523 1522 1520 1519 1518 1517 1515 1513 1512 1511 1510 1509 1507 1504 1496 1495 1496 1496 1494 1493 1491 1490 1488 1486 1485 1484 1482 1481 1481 1481